TimeCDT,TemperatureF,Dew PointF,Humidity,Sea Level PressureIn,VisibilityMPH,Wind Direction,Wind SpeedMPH,Gust SpeedMPH,PrecipitationIn,Events,Conditions,WindDirDegrees,DateUTC
12:15 AM,33.8,21.2,60,30.32,10.0,ESE,5.8,-,N/A,,Clear,120,2012-10-29 05:15:00
12:35 AM,33.8,19.4,56,30.32,10.0,ESE,4.6,-,N/A,,Clear,110,2012-10-29 05:35:00
12:55 AM,33.8,21.2,60,30.32,10.0,East,4.6,-,N/A,,Clear,100,2012-10-29 05:55:00
1:15 AM,33.8,21.2,60,30.32,10.0,ESE,4.6,-,N/A,,Clear,120,2012-10-29 06:15:00
1:35 AM,32.0,19.4,60,30.32,10.0,ESE,4.6,-,N/A,,Clear,120,2012-10-29 06:35:00
1:55 AM,30.2,21.2,69,30.32,10.0,ESE,3.5,-,N/A,,Clear,120,2012-10-29 06:55:00
2:15 AM,32.0,19.4,60,30.32,10.0,ESE,4.6,-,N/A,,Clear,120,2012-10-29 07:15:00
2:35 AM,32.0,21.2,64,30.32,10.0,ESE,4.6,-,N/A,,Clear,110,2012-10-29 07:35:00
2:55 AM,32.0,21.2,64,30.32,10.0,SE,4.6,-,N/A,,Clear,130,2012-10-29 07:55:00
3:15 AM,32.0,21.2,64,30.32,10.0,ESE,4.6,-,N/A,,Clear,110,2012-10-29 08:15:00
3:35 AM,30.2,21.2,69,30.31,10.0,ESE,5.8,-,N/A,,Clear,110,2012-10-29 08:35:00
3:55 AM,28.4,21.2,74,30.31,10.0,East,5.8,-,N/A,,Clear,100,2012-10-29 08:55:00
4:35 AM,28.4,21.2,74,30.31,10.0,SE,5.8,-,N/A,,Clear,130,2012-10-29 09:35:00
4:55 AM,28.4,21.2,74,30.31,10.0,ESE,5.8,-,N/A,,Clear,120,2012-10-29 09:55:00
5:15 AM,30.2,21.2,69,30.32,10.0,ESE,5.8,-,N/A,,Clear,120,2012-10-29 10:15:00
5:55 AM,28.4,21.2,74,30.32,10.0,ESE,6.9,-,N/A,,Clear,120,2012-10-29 10:55:00
6:15 AM,30.2,21.2,69,30.32,10.0,ESE,6.9,-,N/A,,Clear,110,2012-10-29 11:15:00
6:55 AM,28.4,21.2,74,30.32,10.0,ESE,6.9,-,N/A,,Clear,110,2012-10-29 11:55:00
7:15 AM,30.2,21.2,69,30.32,10.0,ESE,6.9,-,N/A,,Clear,120,2012-10-29 12:15:00
7:35 AM,30.2,23.0,75,30.32,10.0,ESE,6.9,-,N/A,,Clear,120,2012-10-29 12:35:00
7:55 AM,30.2,23.0,75,30.32,10.0,ESE,8.1,-,N/A,,Clear,120,2012-10-29 12:55:00
8:15 AM,32.0,24.8,75,30.33,10.0,ESE,6.9,-,N/A,,Clear,110,2012-10-29 13:15:00
8:35 AM,33.8,26.6,75,30.33,10.0,ESE,8.1,-,N/A,,Clear,120,2012-10-29 13:35:00
8:55 AM,33.8,26.6,75,30.33,10.0,ESE,6.9,-,N/A,,Clear,120,2012-10-29 13:55:00
9:35 AM,39.2,28.4,65,30.34,10.0,SSE,10.4,-,N/A,,Clear,150,2012-10-29 14:35:00
9:55 AM,41.0,28.4,61,30.34,10.0,SSE,11.5,-,N/A,,Clear,150,2012-10-29 14:55:00
10:15 AM,41.0,28.4,61,30.34,10.0,SE,9.2,-,N/A,,Clear,140,2012-10-29 15:15:00
10:35 AM,42.8,28.4,57,30.34,10.0,SSE,10.4,-,N/A,,Clear,150,2012-10-29 15:35:00
10:55 AM,42.8,28.4,57,30.34,10.0,SSE,8.1,-,N/A,,Clear,160,2012-10-29 15:55:00
11:15 AM,42.8,30.2,61,30.33,10.0,SSE,8.1,-,N/A,,Clear,150,2012-10-29 16:15:00
11:35 AM,44.6,28.4,53,30.33,10.0,South,8.1,-,N/A,,Scattered Clouds,170,2012-10-29 16:35:00
11:55 AM,44.6,30.2,57,30.33,10.0,SSE,9.2,-,N/A,,Mostly Cloudy,160,2012-10-29 16:55:00
12:15 PM,44.6,28.4,53,30.32,10.0,SSE,8.1,-,N/A,,Mostly Cloudy,150,2012-10-29 17:15:00
12:55 PM,46.4,28.4,50,30.32,10.0,SE,9.2,-,N/A,,Overcast,140,2012-10-29 17:55:00
1:15 PM,46.4,28.4,50,30.31,10.0,SSE,6.9,-,N/A,,Overcast,150,2012-10-29 18:15:00
1:35 PM,46.4,28.4,50,30.30,10.0,SSE,9.2,-,N/A,,Overcast,160,2012-10-29 18:35:00
1:55 PM,46.4,28.4,50,30.29,10.0,SSE,9.2,-,N/A,,Overcast,150,2012-10-29 18:55:00
2:15 PM,46.4,28.4,50,30.28,10.0,SSE,9.2,-,N/A,,Overcast,160,2012-10-29 19:15:00
2:35 PM,46.4,28.4,50,30.28,10.0,SSE,10.4,-,N/A,,Overcast,150,2012-10-29 19:35:00
2:55 PM,46.4,26.6,46,30.27,10.0,SE,9.2,-,N/A,,Overcast,130,2012-10-29 19:55:00
3:35 PM,48.2,26.6,43,30.25,10.0,ESE,10.4,-,N/A,,Overcast,120,2012-10-29 20:35:00
3:55 PM,48.2,26.6,43,30.25,10.0,SE,9.2,-,N/A,,Overcast,130,2012-10-29 20:55:00
4:15 PM,48.2,26.6,43,30.25,10.0,ESE,6.9,-,N/A,,Mostly Cloudy,120,2012-10-29 21:15:00
6:55 PM,42.8,28.4,57,30.24,10.0,Calm,Calm,-,N/A,,Overcast,0,2012-10-29 23:55:00
7:15 PM,42.8,28.4,57,30.24,10.0,East,4.6,-,N/A,,Overcast,80,2012-10-30 00:15:00
7:35 PM,42.8,28.4,57,30.24,10.0,ENE,3.5,-,N/A,,Overcast,70,2012-10-30 00:35:00
7:55 PM,42.8,28.4,57,30.24,10.0,ENE,3.5,-,N/A,,Overcast,70,2012-10-30 00:55:00
10:55 PM,37.4,26.6,65,30.22,10.0,NE,4.6,-,N/A,,Scattered Clouds,40,2012-10-30 03:55:00
11:15 PM,37.4,26.6,65,30.21,10.0,NE,4.6,-,N/A,,Clear,40,2012-10-30 04:15:00
11:35 PM,37.4,26.6,65,30.22,10.0,NE,5.8,-,N/A,,Clear,50,2012-10-30 04:35:00
11:55 PM,37.4,26.6,65,30.21,10.0,NE,5.8,-,N/A,,Clear,50,2012-10-30 04:55:00